Weather in Cherskaya

Russia / Pskov Oblast     57°35′10″N   28°19′01″E
temp.,
°C
wind,
m/s
gust,
m/s
humid.,
%
clouds,
%
prec.,
mm/h
press.,
hPa
HPBL,
m
24 june, thu
thu2400:00+21nw019174 1.7 101811
03:00+20wnw1194100 3.1 101811
06:00+20sw2296100 2.6 101858
09:00+24sse238594 3.8 1017308
12:00+29sw236270 1.1 10161048
15:00+31s455571 2.6 10151696
18:00+27n2371100 0.3 1015220
21:00+21se249699 1.1 1015104
25 june, fri
fri2500:00+19se229679 0.3 101531
03:00+18ese23975 2.1 101455
06:00+19se2597100 0.8 1014145
09:00+23e118885 3.3 1013252
12:00+23se1289100 1.4 101343
15:00+27w117083 2.4 1012292
18:00+26nne2271100 0.3 1010236
21:00+21e2395100 1.2 101089
26 june, sat
sat2600:00+19ese259828 2.3 1011126
03:00+18sse1197100 2.3 101118
06:00+20wsw119622 0.1 101173
09:00+23wsw118588 0.1 1012362
12:00+27sw126536 0.0 1011993
15:00+28ssw2364100 1.0 10111191
18:00+26sw2480100 1.0 1011434
21:00+22sw378613 1.7 1011203
27 june, sun
sun2700:00+19w389599 0.4 1012183
03:00+17wsw359732 1.3 1012114
06:00+18wsw25979 0.0 1013181
09:00+21wsw237917 0.0 1013589
12:00+25sw3459100 0.0 10131354
15:00+26ssw455097 0.0 10121760
18:00+26sw4657100 0.0 10121079
21:00+20wsw37765 0.0 1012207
28 june, mon
mon2800:00+16w35925 0.0 1013102
03:00+15wsw239450 0.0 101463
06:00+15wsw389299 0.0 1013279
09:00+18wsw3678100 0.0 1014529
12:00+24w5753100 0.0 10141494
15:00+26nw4644100 0.0 10132088
18:00+24nnw235983 0.0 1013282
21:00+21wnw31065100 0.0 1013279